START_TIME,STEP,MOV.,M29,t_acc.,H22,t_acc.,H26,t_acc.,H30,t_acc.
1989-08-24T00:00:32.840 ,5,0,0.,24.0,0.,24.0,0.,24.0,0.,24.0
1989-08-24T00:00:56.840 ,4,1,0.,24.0,0.,24.0,0.,24.0,0.,24.0
1989-08-24T00:01:20.840 ,4,0,0.,24.0,0.,24.0,0.,24.0,0.,24.0
1989-08-24T00:01:44.840 ,3,1,0.,24.0,0.,24.0,0.,24.0,0.,24.0
1989-08-24T00:02:08.840 ,3,0,0.,24.0,0.,24.0,0.,24.0,0.,24.0
1989-08-24T00:02:32.840 ,2,1,0.,24.0,0.,24.0,0.,24.0,0.,24.0
1989-08-24T00:02:56.840 ,2,0,0.,24.0,0.,24.0,0.,24.0,0.,24.0
1989-08-24T00:03:20.840 ,1,1,0.,24.0,0.,24.0,0.,24.0,0.,24.0
1989-08-24T00:03:44.840 ,1,0,0.,24.0,0.,24.0,0.,24.0,0.,24.0
1989-08-24T00:04:08.840 ,0,1,0.,24.0,0.,24.0,0.,24.0,0.,24.0
1989-08-24T00:04:32.840 ,0,0,0.,24.0,0.,24.0,0.,24.0,0.,24.0
1989-08-24T00:04:56.840 ,0,1,0.,24.0,0.,24.0,0.,24.0,0.,24.0
1989-08-24T00:05:20.840 ,0,0,0.,24.0,0.,24.0,0.,24.0,0.,24.0
1989-08-24T00:05:44.840 ,1,1,0.,24.0,0.,24.0,0.,24.0,0.,24.0
1989-08-24T00:06:08.840 ,1,0,0.,24.0,0.,24.0,0.,24.0,0.,24.0
1989-08-24T00:06:32.840 ,2,1,0.,24.0,0.,24.0,0.,24.0,0.,24.0
1989-08-24T00:06:56.840 ,2,0,0.,24.0,0.,24.0,0.,24.0,0.,24.0
1989-08-24T00:07:20.840 ,3,1,0.,24.0,0.,24.0,0.,24.0,0.,24.0
1989-08-24T00:07:44.840 ,3,0,0.,24.0,0.,24.0,0.,24.0,0.,24.0
1989-08-24T00:08:08.840 ,4,1,0.,24.0,0.,24.0,0.,24.0,0.,24.0
1989-08-24T00:08:32.840 ,4,0,0.,24.0,0.,24.0,0.,24.0,0.,24.0
1989-08-24T00:08:56.840 ,5,1,0.,24.0,0.,24.0,0.,24.0,0.,24.0
1989-08-24T00:09:20.840 ,5,0,0.,24.0,0.,24.0,0.,24.0,0.,24.0
1989-08-24T00:09:44.840 ,6,1,0.,24.0,0.,24.0,0.,24.0,0.,24.0
1989-08-24T00:10:08.840 ,6,0,0.,24.0,0.,24.0,0.,24.0,0.,24.0
1989-08-24T00:10:32.840 ,7,1,0.,24.0,0.,24.0,0.,24.0,0.,24.0
1989-08-24T00:10:56.840 ,7,0,0.,24.0,0.,24.0,0.,24.0,0.,24.0
1989-08-24T00:11:20.840 ,7,1,0.,24.0,0.,24.0,0.,24.0,0.,24.0
1989-08-24T00:11:44.840 ,7,0,0.,24.0,0.,24.0,0.,24.0,0.,24.0
1989-08-24T00:12:08.840 ,6,1,0.,24.0,0.,24.0,0.,24.0,0.,24.0
1989-08-24T00:12:32.840 ,6,0,0.,24.0,0.,24.0,0.,24.0,0.,24.0
1989-08-24T00:12:56.840 ,5,1,0.,24.0,0.,24.0,0.,24.0,0.,24.0
1989-08-24T00:13:20.840 ,5,0,0.,24.0,0.,24.0,0.,24.0,0.,24.0
1989-08-24T00:13:44.840 ,4,1,0.,24.0,0.,24.0,0.,24.0,0.,24.0
1989-08-24T00:14:08.840 ,4,0,0.,24.0,0.,24.0,0.,24.0,0.,24.0
1989-08-24T00:14:32.840 ,3,1,0.,24.0,0.,24.0,0.,24.0,0.,24.0
1989-08-24T00:14:56.840 ,3,0,0.,24.0,0.,24.0,0.,24.0,0.,24.0
1989-08-24T00:15:20.840 ,2,1,0.,24.0,0.,24.0,0.,24.0,0.,24.0
1989-08-24T00:15:44.840 ,2,0,0.,24.0,0.,24.0,0.,24.0,0.,24.0
1989-08-24T00:16:08.840 ,1,1,0.,24.0,0.,24.0,0.,24.0,0.,24.0
1989-08-24T00:16:32.840 ,1,0,0.,24.0,0.,24.0,0.,24.0,0.,24.0
1989-08-24T00:16:56.840 ,0,1,0.,24.0,0.,24.0,0.,24.0,0.,24.0
1989-08-24T00:17:20.840 ,0,0,0.,24.0,0.,24.0,0.,24.0,0.,24.0
1989-08-24T00:17:44.840 ,0,1,0.,24.0,0.,24.0,0.,24.0,0.,24.0
1989-08-24T00:18:08.840 ,0,0,0.,24.0,0.,24.0,0.,24.0,0.,24.0
1989-08-24T00:18:32.840 ,1,1,0.,24.0,0.,24.0,0.,24.0,0.,24.0
1989-08-24T00:18:56.840 ,1,0,0.,24.0,0.,24.0,0.,24.0,0.,24.0
1989-08-24T00:19:20.840 ,2,1,0.,24.0,0.,24.0,0.,24.0,0.,24.0
1989-08-24T00:19:44.840 ,2,0,0.,24.0,0.,24.0,0.,24.0,0.,24.0
1989-08-24T00:20:08.840 ,3,1,0.,24.0,0.,24.0,0.,24.0,0.,24.0
1989-08-24T00:20:32.840 ,3,0,0.,24.0,0.,24.0,0.,24.0,0.,24.0
1989-08-24T00:20:56.840 ,4,1,0.,24.0,0.,24.0,0.,24.0,0.,24.0
1989-08-24T00:21:20.840 ,4,0,0.,24.0,0.,24.0,0.,24.0,0.,24.0
1989-08-24T00:21:44.840 ,5,1,0.,24.0,0.,24.0,0.,24.0,0.,24.0
1989-08-24T00:22:08.840 ,5,0,0.,24.0,0.,24.0,0.,24.0,0.,24.0
1989-08-24T00:22:32.840 ,6,1,0.,24.0,0.,24.0,0.,24.0,0.,24.0
1989-08-24T00:22:56.840 ,6,0,0.,24.0,0.,24.0,0.,24.0,0.,24.0
1989-08-24T00:23:20.840 ,7,1,0.,24.0,0.,24.0,0.,24.0,0.,24.0
1989-08-24T00:23:44.840 ,7,0,0.,24.0,0.,24.0,0.,24.0,0.,24.0
1989-08-24T00:24:08.840 ,7,1,0.,24.0,0.,24.0,0.,24.0,0.,24.0
1989-08-24T00:24:32.840 ,7,0,0.,24.0,0.,24.0,0.,24.0,0.,24.0
1989-08-24T00:24:56.840 ,6,1,0.,24.0,0.,24.0,0.,24.0,0.,24.0
1989-08-24T00:25:20.840 ,6,0,0.,24.0,0.,24.0,0.,24.0,0.,24.0
1989-08-24T00:25:44.840 ,5,1,0.,24.0,0.,24.0,0.,24.0,0.,24.0
1989-08-24T00:26:08.840 ,5,0,0.,24.0,0.,24.0,0.,24.0,0.,24.0
1989-08-24T00:26:32.840 ,4,1,0.,24.0,0.,24.0,0.,24.0,0.,24.0
1989-08-24T00:26:56.840 ,4,0,0.,24.0,0.,24.0,0.,24.0,0.,24.0
1989-08-24T00:27:20.840 ,3,1,0.,24.0,0.,24.0,0.,24.0,0.,24.0
1989-08-24T00:27:44.840 ,3,0,0.,24.0,0.,24.0,0.,24.0,0.,24.0
1989-08-24T00:28:08.840 ,2,1,0.,24.0,0.,24.0,0.,24.0,0.,24.0
1989-08-24T00:28:32.840 ,2,0,0.,24.0,0.,24.0,0.,24.0,0.,24.0
1989-08-24T00:28:56.840 ,1,1,0.,24.0,0.,24.0,0.,24.0,0.,24.0
1989-08-24T00:29:20.840 ,1,0,0.,24.0,0.,24.0,0.,24.0,0.,24.0
1989-08-24T00:29:44.840 ,0,1,0.,24.0,0.,24.0,0.,24.0,0.,24.0
1989-08-24T00:30:08.840 ,0,0,0.,24.0,0.,24.0,0.,24.0,0.,24.0
1989-08-24T00:30:32.840 ,0,1,0.,24.0,0.,24.0,0.,24.0,0.,24.0
1989-08-24T00:30:56.840 ,0,0,0.,24.0,0.,24.0,0.,24.0,0.,24.0
1989-08-24T00:31:20.840 ,1,1,0.,24.0,0.,24.0,0.,24.0,0.,24.0
1989-08-24T00:31:44.840 ,1,0,0.,24.0,0.,24.0,0.,24.0,0.,24.0
1989-08-24T00:32:08.840 ,2,1,0.,24.0,0.,24.0,0.,24.0,0.,24.0
1989-08-24T00:32:32.840 ,2,0,0.,24.0,0.,24.0,0.,24.0,0.,24.0
1989-08-24T00:32:56.840 ,3,1,0.,24.0,0.,24.0,0.,24.0,0.,24.0
1989-08-24T00:33:20.840 ,3,0,0.,24.0,0.,24.0,0.,24.0,0.,24.0
1989-08-24T00:33:44.840 ,4,1,0.,24.0,0.,24.0,0.,24.0,0.,24.0
1989-08-24T00:34:08.840 ,4,0,0.,24.0,0.,24.0,0.,24.0,0.,24.0
1989-08-24T00:34:32.840 ,5,1,0.,24.0,0.,24.0,0.,24.0,0.,24.0
1989-08-24T00:34:56.840 ,5,0,0.,24.0,0.,24.0,0.,24.0,0.,24.0
1989-08-24T00:35:20.840 ,6,1,0.,24.0,0.,24.0,0.,24.0,0.,24.0
1989-08-24T00:35:44.840 ,6,0,0.,24.0,0.,24.0,0.,24.0,0.,24.0
1989-08-24T00:36:08.840 ,7,1,0.,24.0,0.,24.0,0.,24.0,0.,24.0
1989-08-24T00:36:32.840 ,7,0,0.,24.0,0.,24.0,0.,24.0,0.,24.0
1989-08-24T00:36:56.840 ,7,1,0.,24.0,0.,24.0,0.,24.0,0.,24.0
1989-08-24T00:37:20.840 ,7,0,0.,24.0,0.,24.0,0.,24.0,0.,24.0
1989-08-24T00:37:44.840 ,6,1,0.,24.0,0.,24.0,0.,24.0,0.,24.0
1989-08-24T00:38:08.840 ,6,0,0.,24.0,0.,24.0,0.,24.0,0.,24.0
1989-08-24T00:38:32.840 ,5,1,0.,24.0,0.,24.0,0.,24.0,0.,24.0
1989-08-24T00:38:56.840 ,5,0,0.,24.0,0.,24.0,0.,24.0,0.,24.0
1989-08-24T00:39:20.840 ,4,1,0.,24.0,0.,24.0,0.,24.0,0.,24.0
1989-08-24T00:39:44.840 ,4,0,0.,24.0,0.,24.0,0.,24.0,0.,24.0
1989-08-24T00:40:08.840 ,3,1,0.,24.0,0.,24.0,0.,24.0,0.,24.0
1989-08-24T00:40:32.840 ,3,0,0.,24.0,0.,24.0,0.,24.0,0.,24.0
1989-08-24T00:40:56.840 ,2,1,0.,24.0,0.,24.0,0.,24.0,0.,24.0
1989-08-24T00:41:20.840 ,2,0,0.,24.0,0.,24.0,0.,24.0,0.,24.0
1989-08-24T00:41:44.840 ,1,1,0.,24.0,0.,24.0,0.,24.0,0.,24.0
1989-08-24T00:42:08.840 ,1,0,0.,24.0,0.,24.0,0.,24.0,0.,24.0
1989-08-24T00:42:32.840 ,0,1,0.,24.0,0.,24.0,0.,24.0,0.,24.0
1989-08-24T00:42:56.840 ,0,0,0.,24.0,0.,24.0,0.,24.0,0.,24.0
1989-08-24T00:43:20.840 ,0,1,0.,24.0,0.,24.0,0.,24.0,0.,24.0
1989-08-24T00:43:44.840 ,0,0,0.,24.0,0.,24.0,0.,24.0,0.,24.0
1989-08-24T00:44:08.840 ,1,1,0.,24.0,0.,24.0,0.,24.0,0.,24.0
1989-08-24T00:44:32.840 ,1,0,0.,24.0,0.,24.0,0.,24.0,0.,24.0
1989-08-24T00:44:56.840 ,2,1,0.,24.0,0.,24.0,0.,24.0,0.,24.0
1989-08-24T00:45:20.840 ,2,0,0.,24.0,0.,24.0,0.,24.0,0.,24.0
1989-08-24T00:45:44.840 ,3,1,0.,24.0,0.,24.0,0.,24.0,0.,24.0
1989-08-24T00:46:08.840 ,3,0,0.,24.0,0.,24.0,0.,24.0,0.,24.0
1989-08-24T00:46:32.840 ,4,1,0.,24.0,0.,24.0,0.,24.0,0.,24.0
1989-08-24T00:46:56.840 ,4,0,0.,24.0,0.,24.0,0.,24.0,0.,24.0
1989-08-24T00:47:20.840 ,5,1,0.,24.0,0.,24.0,0.,24.0,0.,24.0
1989-08-24T00:47:44.840 ,5,0,0.,24.0,0.,24.0,0.,24.0,0.,24.0
1989-08-24T00:48:08.840 ,6,1,0.,24.0,0.,24.0,0.,24.0,0.,24.0
1989-08-24T00:48:32.840 ,6,0,0.,24.0,0.,24.0,0.,24.0,0.,24.0
1989-08-24T00:48:56.840 ,7,1,0.,24.0,0.,24.0,0.,24.0,0.,24.0
1989-08-24T00:49:20.840 ,7,0,0.,24.0,0.,24.0,0.,24.0,0.,24.0
1989-08-24T00:49:44.840 ,7,1,0.,24.0,0.,24.0,0.,24.0,0.,24.0
1989-08-24T00:50:08.840 ,7,0,0.,24.0,0.,24.0,0.,24.0,0.,24.0
1989-08-24T00:50:32.840 ,6,1,0.,24.0,0.,24.0,0.,24.0,0.,24.0
1989-08-24T00:50:56.840 ,6,0,0.,24.0,0.,24.0,0.,24.0,0.,24.0
1989-08-24T00:51:20.840 ,5,1,0.,24.0,0.,24.0,0.,24.0,0.,24.0
1989-08-24T00:51:44.840 ,5,0,0.,24.0,0.,24.0,0.,24.0,0.,24.0
1989-08-24T00:52:08.840 ,4,1,0.,24.0,0.,24.0,0.,24.0,0.,24.0
1989-08-24T00:52:32.840 ,4,0,0.,24.0,0.,24.0,0.,24.0,0.,24.0
1989-08-24T00:52:56.840 ,3,1,0.,24.0,0.,24.0,0.,24.0,0.,24.0
1989-08-24T00:53:20.840 ,3,0,0.,24.0,0.,24.0,0.,24.0,0.,24.0
1989-08-24T00:53:44.840 ,2,1,0.,24.0,0.,24.0,0.,24.0,0.,24.0
1989-08-24T00:54:08.840 ,2,0,0.,24.0,0.,24.0,0.,24.0,0.,24.0
1989-08-24T00:54:32.840 ,1,1,0.,24.0,0.,24.0,0.,24.0,0.,24.0
1989-08-24T00:54:56.840 ,1,0,0.,24.0,0.,24.0,0.,24.0,0.,24.0
1989-08-24T00:55:20.840 ,0,1,0.,24.0,0.,24.0,0.,24.0,0.,24.0
1989-08-24T00:55:44.840 ,0,0,0.,24.0,0.,24.0,0.,24.0,0.,24.0
1989-08-24T00:56:08.840 ,0,1,0.,24.0,0.,24.0,0.,24.0,0.,24.0
1989-08-24T00:56:32.840 ,0,0,0.,24.0,0.,24.0,0.,24.0,0.,24.0
1989-08-24T00:56:56.840 ,1,1,0.,24.0,0.,24.0,0.,24.0,0.,24.0
1989-08-24T00:57:20.840 ,1,0,0.,24.0,0.,24.0,0.,24.0,0.,24.0
1989-08-24T00:57:44.840 ,2,1,0.,24.0,0.,24.0,0.,24.0,0.,24.0
1989-08-24T00:58:08.840 ,2,0,0.,24.0,0.,24.0,0.,24.0,0.,24.0
1989-08-24T00:58:32.840 ,3,1,0.,24.0,0.,24.0,0.,24.0,0.,24.0
1989-08-24T00:58:56.840 ,3,0,0.,24.0,0.,24.0,0.,24.0,0.,24.0
1989-08-24T00:59:20.840 ,4,1,0.,24.0,0.,24.0,0.,24.0,0.,24.0
1989-08-24T00:59:44.840 ,4,0,0.,24.0,0.,24.0,0.,24.0,0.,24.0
1989-08-24T01:00:08.840 ,5,1,0.,24.0,0.,24.0,0.,24.0,0.,24.0
1989-08-24T01:00:32.840 ,5,0,0.,24.0,0.,24.0,0.,24.0,0.,24.0
1989-08-24T01:00:56.840 ,6,1,0.,24.0,0.,24.0,0.,24.0,0.,24.0
1989-08-24T01:01:20.840 ,6,0,0.,24.0,0.,24.0,0.,24.0,0.,24.0
1989-08-24T01:01:44.840 ,7,1,0.,24.0,0.,24.0,0.,24.0,0.,24.0
1989-08-24T01:02:08.840 ,7,0,0.,24.0,0.,24.0,0.,24.0,0.,24.0
1989-08-24T01:02:32.840 ,7,1,0.,24.0,0.,24.0,0.,24.0,0.,24.0
1989-08-24T01:02:56.840 ,7,0,0.,24.0,0.,24.0,0.,24.0,0.,24.0
1989-08-24T01:03:20.840 ,6,1,0.,24.0,0.,24.0,0.,24.0,0.,24.0
1989-08-24T01:03:44.840 ,6,0,0.,24.0,0.,24.0,0.,24.0,0.,24.0
1989-08-24T01:04:08.840 ,5,1,0.,24.0,0.,24.0,0.,24.0,0.,24.0
1989-08-24T01:04:32.840 ,5,0,0.,24.0,0.,24.0,0.,24.0,0.,24.0
1989-08-24T01:04:56.840 ,4,1,0.,24.0,0.,24.0,0.,24.0,0.,24.0
1989-08-24T01:05:20.840 ,4,0,0.,24.0,0.,24.0,0.,24.0,0.,24.0
1989-08-24T01:05:44.840 ,3,1,0.,24.0,0.,24.0,0.,24.0,0.,24.0
1989-08-24T01:06:08.840 ,3,0,0.,24.0,0.,24.0,0.,24.0,0.,24.0
1989-08-24T01:06:32.840 ,2,1,0.,24.0,0.,24.0,0.,24.0,0.,24.0
1989-08-24T01:06:56.840 ,2,0,0.,24.0,0.,24.0,0.,24.0,0.,24.0
1989-08-24T01:07:20.840 ,1,1,0.,24.0,0.,24.0,0.,24.0,0.,24.0
1989-08-24T01:07:44.840 ,1,0,0.,24.0,0.,24.0,0.,24.0,0.,24.0
1989-08-24T01:08:08.840 ,0,1,0.,24.0,0.,24.0,0.,24.0,0.,24.0
1989-08-24T01:08:32.840 ,0,0,0.,24.0,0.,24.0,0.,24.0,0.,24.0
1989-08-24T01:08:56.840 ,0,1,0.,24.0,0.,24.0,0.,24.0,0.,24.0
1989-08-24T01:09:20.840 ,0,0,0.,24.0,0.,24.0,0.,24.0,0.,24.0
1989-08-24T01:09:44.840 ,1,1,0.,24.0,0.,24.0,0.,24.0,0.,24.0
1989-08-24T01:10:08.840 ,1,0,0.,24.0,0.,24.0,0.,24.0,0.,24.0
1989-08-24T01:10:32.840 ,2,1,0.,24.0,0.,24.0,0.,24.0,0.,24.0
1989-08-24T01:10:56.840 ,2,0,0.,24.0,0.,24.0,0.,24.0,0.,24.0
1989-08-24T01:11:20.840 ,3,1,0.,24.0,0.,24.0,0.,24.0,0.,24.0
1989-08-24T01:11:44.840 ,3,0,0.,24.0,0.,24.0,0.,24.0,0.,24.0
1989-08-24T01:12:08.840 ,4,1,0.,24.0,0.,24.0,0.,24.0,0.,24.0
1989-08-24T01:12:32.840 ,4,0,0.,24.0,0.,24.0,0.,24.0,0.,24.0
1989-08-24T01:12:56.840 ,5,1,0.,24.0,0.,24.0,0.,24.0,0.,24.0
1989-08-24T01:13:20.840 ,5,0,0.,24.0,0.,24.0,0.,24.0,0.,24.0
1989-08-24T01:13:44.840 ,6,1,0.,24.0,0.,24.0,0.,24.0,0.,24.0
1989-08-24T01:14:08.840 ,6,0,0.,24.0,0.,24.0,0.,24.0,0.,24.0
1989-08-24T01:14:32.840 ,7,1,0.,24.0,0.,24.0,0.,24.0,0.,24.0
1989-08-24T01:14:56.840 ,7,0,0.,24.0,0.,24.0,0.,24.0,0.,24.0
1989-08-24T01:15:20.840 ,7,1,0.,24.0,0.,24.0,0.,24.0,0.,24.0
1989-08-24T01:15:44.840 ,7,0,0.,24.0,0.,24.0,0.,24.0,0.,24.0
1989-08-24T01:16:08.840 ,6,1,0.,24.0,0.,24.0,0.,24.0,0.,24.0
1989-08-24T01:16:32.840 ,6,0,0.,24.0,0.,24.0,0.,24.0,0.,24.0
1989-08-24T01:16:56.840 ,5,1,0.,24.0,0.,24.0,0.,24.0,0.,24.0
1989-08-24T01:17:20.840 ,5,0,0.,24.0,0.,24.0,0.,24.0,0.,24.0
1989-08-24T01:17:44.840 ,4,1,0.,24.0,0.,24.0,0.,24.0,0.,24.0
1989-08-24T01:18:08.840 ,4,0,0.,24.0,0.,24.0,0.,24.0,0.,24.0
1989-08-24T01:18:32.840 ,3,1,0.,24.0,0.,24.0,0.,24.0,0.,24.0
1989-08-24T01:18:56.840 ,3,0,0.,24.0,0.,24.0,0.,24.0,0.,24.0
1989-08-24T01:19:20.840 ,2,1,0.,24.0,0.,24.0,0.,24.0,0.,24.0
1989-08-24T01:19:44.840 ,2,0,0.,24.0,0.,24.0,0.,24.0,0.,24.0
1989-08-24T01:20:08.840 ,1,1,0.,24.0,0.,24.0,0.,24.0,0.,24.0
1989-08-24T01:20:32.840 ,1,0,0.,24.0,0.,24.0,0.,24.0,0.,24.0
1989-08-24T01:20:56.840 ,0,1,0.,24.0,0.,24.0,0.,24.0,0.,24.0
1989-08-24T01:21:20.840 ,0,0,0.,24.0,0.,24.0,0.,24.0,0.,24.0
1989-08-24T01:21:44.840 ,0,1,0.,24.0,0.,24.0,0.,24.0,0.,24.0
1989-08-24T01:22:08.840 ,0,0,0.,24.0,0.,24.0,0.,24.0,0.,24.0
1989-08-24T01:22:32.840 ,1,1,0.,24.0,0.,24.0,0.,24.0,0.,24.0
1989-08-24T01:22:56.840 ,1,0,0.,24.0,0.,24.0,0.,24.0,0.,24.0
1989-08-24T01:23:20.840 ,2,1,0.,24.0,0.,24.0,0.,24.0,0.,24.0
1989-08-24T01:23:44.840 ,2,0,0.,24.0,0.,24.0,0.,24.0,0.,24.0
1989-08-24T01:24:08.840 ,3,1,0.,24.0,0.,24.0,0.,24.0,0.,24.0
1989-08-24T01:24:32.840 ,3,0,0.,24.0,0.,24.0,0.,24.0,0.,24.0
1989-08-24T01:24:56.840 ,4,1,0.,24.0,0.,24.0,0.,24.0,0.,24.0
1989-08-24T01:25:20.840 ,4,0,0.,24.0,0.,24.0,0.,24.0,0.,24.0
1989-08-24T01:25:44.840 ,5,1,0.,24.0,0.,24.0,0.,24.0,0.,24.0
1989-08-24T01:26:08.840 ,5,0,0.,24.0,0.,24.0,0.,24.0,0.,24.0
1989-08-24T01:26:32.830 ,6,1,0.,24.0,0.,24.0,0.,24.0,0.,24.0
1989-08-24T01:26:56.830 ,6,0,0.,24.0,0.,24.0,0.,24.0,0.,24.0
1989-08-24T01:27:20.830 ,7,1,0.,24.0,0.,24.0,0.,24.0,0.,24.0
1989-08-24T01:27:44.830 ,7,0,0.,24.0,0.,24.0,0.,24.0,0.,24.0
1989-08-24T01:28:08.830 ,7,1,0.,24.0,0.,24.0,0.,24.0,0.,24.0
1989-08-24T01:28:32.830 ,7,0,0.,24.0,0.,24.0,0.,24.0,0.,24.0
1989-08-24T01:28:56.830 ,6,1,0.,24.0,0.,24.0,0.,24.0,0.,24.0
1989-08-24T01:29:20.830 ,6,0,0.,24.0,0.,24.0,0.,24.0,0.,24.0
1989-08-24T01:29:44.830 ,5,1,0.,24.0,0.,24.0,0.,24.0,0.,24.0
1989-08-24T01:30:08.830 ,5,0,0.,24.0,0.,24.0,0.,24.0,0.,24.0
1989-08-24T01:30:32.830 ,4,1,0.,24.0,0.,24.0,0.,24.0,0.,24.0
1989-08-24T01:30:56.830 ,4,0,0.,24.0,0.,24.0,0.,24.0,0.,24.0
1989-08-24T01:31:20.830 ,3,1,0.,24.0,0.,24.0,0.,24.0,0.,24.0
1989-08-24T01:31:44.830 ,3,0,0.,24.0,0.,24.0,0.,24.0,0.,24.0
1989-08-24T01:32:08.830 ,2,1,0.,24.0,0.,24.0,0.,24.0,0.,24.0
1989-08-24T01:32:32.830 ,2,0,0.,24.0,0.,24.0,0.,24.0,0.,24.0
1989-08-24T01:32:56.830 ,1,1,0.,24.0,0.,24.0,0.,24.0,0.,24.0
1989-08-24T01:33:20.830 ,1,0,0.,24.0,0.,24.0,0.,24.0,0.,24.0
1989-08-24T01:33:44.830 ,0,1,0.,24.0,0.,24.0,0.,24.0,0.,24.0
1989-08-24T01:34:08.830 ,0,0,0.,24.0,0.,24.0,0.,24.0,0.,24.0
1989-08-24T01:34:32.830 ,0,1,0.,24.0,0.,24.0,0.,24.0,0.,24.0
1989-08-24T01:34:56.830 ,0,0,0.,24.0,0.,24.0,0.,24.0,0.,24.0
1989-08-24T01:35:20.830 ,1,1,0.,24.0,0.,24.0,0.,24.0,0.,24.0
1989-08-24T01:35:44.830 ,1,0,0.,24.0,0.,24.0,0.,24.0,0.,24.0
1989-08-24T01:36:08.830 ,2,1,0.,24.0,0.,24.0,0.,24.0,0.,24.0
1989-08-24T01:36:32.830 ,2,0,0.,24.0,0.,24.0,0.,24.0,0.,24.0
1989-08-24T01:36:56.830 ,3,1,0.,24.0,0.,24.0,0.,24.0,0.,24.0
1989-08-24T01:37:20.830 ,3,0,0.,24.0,0.,24.0,0.,24.0,0.,24.0
1989-08-24T01:37:44.830 ,4,1,0.,24.0,0.,24.0,0.,24.0,0.,24.0
1989-08-24T01:38:08.830 ,4,0,0.,24.0,0.,24.0,0.,24.0,0.,24.0
1989-08-24T01:38:32.830 ,5,1,0.,24.0,0.,24.0,0.,24.0,0.,24.0
1989-08-24T01:38:56.830 ,5,0,0.,24.0,0.,24.0,0.,24.0,0.,24.0
1989-08-24T01:39:20.830 ,6,1,0.,24.0,0.,24.0,0.,24.0,0.,24.0
1989-08-24T01:39:44.830 ,6,0,0.,24.0,0.,24.0,0.,24.0,0.,24.0
1989-08-24T01:40:08.830 ,7,1,0.,24.0,0.,24.0,0.,24.0,0.,24.0
1989-08-24T01:40:32.830 ,7,0,0.,24.0,0.,24.0,0.,24.0,0.,24.0
1989-08-24T01:40:56.830 ,7,1,0.,24.0,0.,24.0,0.,24.0,0.,24.0
1989-08-24T01:41:20.830 ,7,0,0.,24.0,0.,24.0,0.,24.0,0.,24.0
1989-08-24T01:41:44.830 ,6,1,0.,24.0,0.,24.0,0.,24.0,0.,24.0
1989-08-24T01:42:08.830 ,6,0,0.,24.0,0.,24.0,0.,24.0,0.,24.0
1989-08-24T01:42:32.830 ,5,1,0.,24.0,0.,24.0,0.,24.0,0.,24.0
1989-08-24T01:42:56.830 ,5,0,0.,24.0,0.,24.0,0.,24.0,0.,24.0
1989-08-24T01:43:20.830 ,4,1,0.,24.0,0.,24.0,0.,24.0,0.,24.0
1989-08-24T01:43:44.830 ,4,0,0.,24.0,0.,24.0,0.,24.0,0.,24.0
1989-08-24T01:44:08.830 ,3,1,0.,24.0,0.,24.0,0.,24.0,0.,24.0
1989-08-24T01:44:32.830 ,3,0,0.,24.0,0.,24.0,0.,24.0,0.,24.0
1989-08-24T01:44:56.830 ,2,1,0.,24.0,0.,24.0,0.,24.0,0.,24.0
1989-08-24T01:45:20.830 ,2,0,0.,24.0,0.,24.0,0.,24.0,0.,24.0
1989-08-24T01:45:44.830 ,1,1,0.,24.0,0.,24.0,0.,24.0,0.,24.0
1989-08-24T01:46:08.830 ,1,0,0.,24.0,0.,24.0,0.,24.0,0.,24.0
1989-08-24T01:46:32.830 ,0,1,0.,24.0,0.,24.0,0.,24.0,0.,24.0
1989-08-24T01:46:56.830 ,0,0,0.,24.0,0.,24.0,0.,24.0,0.,24.0
1989-08-24T01:47:20.830 ,0,1,0.,24.0,0.,24.0,0.,24.0,0.,24.0
1989-08-24T01:47:44.830 ,0,0,0.,24.0,0.,24.0,0.,24.0,0.,24.0
1989-08-24T01:48:08.830 ,1,1,0.,24.0,0.,24.0,0.,24.0,0.,24.0
1989-08-24T01:48:32.830 ,1,0,0.,24.0,0.,24.0,0.,24.0,0.,24.0
1989-08-24T01:48:56.830 ,2,1,0.,24.0,0.,24.0,0.,24.0,0.,24.0
1989-08-24T01:49:20.830 ,2,0,0.,24.0,0.,24.0,0.,24.0,0.,24.0
1989-08-24T01:49:44.830 ,3,1,0.,24.0,0.,24.0,0.,24.0,0.,24.0
1989-08-24T01:50:08.830 ,3,0,0.,24.0,0.,24.0,0.,24.0,0.,24.0
1989-08-24T01:50:32.830 ,4,1,0.,24.0,0.,24.0,0.,24.0,0.,24.0
1989-08-24T01:50:56.830 ,4,0,0.,24.0,0.,24.0,0.,24.0,0.,24.0
1989-08-24T01:51:20.830 ,5,1,0.,24.0,0.,24.0,0.,24.0,0.,24.0
1989-08-24T01:51:44.830 ,5,0,0.,24.0,0.,24.0,0.,24.0,0.,24.0
1989-08-24T01:52:08.830 ,6,1,0.,24.0,0.,24.0,0.,24.0,0.,24.0
1989-08-24T01:52:32.830 ,6,0,0.,24.0,0.,24.0,0.,24.0,0.,24.0
1989-08-24T01:52:56.830 ,7,1,0.,24.0,0.,24.0,0.,24.0,0.,24.0
1989-08-24T01:53:20.830 ,7,0,0.,24.0,0.,24.0,0.,24.0,0.,24.0
1989-08-24T01:53:44.830 ,7,1,0.,24.0,0.,24.0,0.,24.0,0.,24.0
1989-08-24T01:54:08.830 ,7,0,0.,24.0,0.,24.0,0.,24.0,0.,24.0
1989-08-24T01:54:32.830 ,6,1,0.,24.0,0.,24.0,0.,24.0,0.,24.0
1989-08-24T01:54:56.830 ,6,0,0.,24.0,0.,24.0,0.,24.0,0.,24.0
1989-08-24T01:55:20.830 ,5,1,0.,24.0,0.,24.0,0.,24.0,0.,24.0
1989-08-24T01:55:44.830 ,5,0,0.,24.0,0.,24.0,0.,24.0,0.,24.0
1989-08-24T01:56:08.830 ,4,1,0.,24.0,0.,24.0,0.,24.0,0.,24.0
1989-08-24T01:56:32.830 ,4,0,0.,24.0,0.,24.0,0.,24.0,0.,24.0
1989-08-24T01:56:56.830 ,3,1,0.,24.0,0.,24.0,0.,24.0,0.,24.0
1989-08-24T01:57:20.830 ,3,0,0.,24.0,0.,24.0,0.,24.0,0.,24.0
1989-08-24T01:57:44.830 ,2,1,0.,24.0,0.,24.0,0.,24.0,0.,24.0
1989-08-24T01:58:08.830 ,2,0,0.,24.0,0.,24.0,0.,24.0,0.,24.0
1989-08-24T01:58:32.830 ,1,1,0.,24.0,0.,24.0,0.,24.0,0.,24.0
1989-08-24T01:58:56.830 ,1,0,0.,24.0,0.,24.0,0.,24.0,0.,24.0
1989-08-24T01:59:20.830 ,0,1,0.,24.0,0.,24.0,0.,24.0,0.,24.0
1989-08-24T01:59:44.830 ,0,0,0.,24.0,0.,24.0,0.,24.0,0.,24.0
1989-08-24T02:00:08.830 ,0,1,0.,24.0,0.,24.0,0.,24.0,0.,24.0
1989-08-24T02:00:32.830 ,0,0,0.,24.0,0.,24.0,0.,24.0,0.,24.0
1989-08-24T02:00:56.830 ,1,1,0.,24.0,0.,24.0,0.,24.0,0.,24.0
1989-08-24T02:01:20.830 ,1,0,0.,24.0,0.,24.0,0.,24.0,0.,24.0
1989-08-24T02:01:44.830 ,2,1,0.,24.0,0.,24.0,0.,24.0,0.,24.0
1989-08-24T02:02:08.830 ,2,0,0.,24.0,0.,24.0,0.,24.0,0.,24.0
1989-08-24T02:02:32.830 ,3,1,0.,24.0,0.,24.0,0.,24.0,0.,24.0
1989-08-24T02:02:56.830 ,3,0,0.,24.0,0.,24.0,0.,24.0,0.,24.0
1989-08-24T02:03:20.830 ,4,1,0.,24.0,0.,24.0,0.,24.0,0.,24.0
1989-08-24T02:03:44.830 ,4,0,0.,24.0,0.,24.0,0.,24.0,0.,24.0
1989-08-24T02:04:08.830 ,5,1,0.,24.0,0.,24.0,0.,24.0,0.,24.0
1989-08-24T02:04:32.830 ,5,0,0.,24.0,0.,24.0,0.,24.0,0.,24.0
1989-08-24T02:04:56.830 ,6,1,0.,24.0,0.,24.0,0.,24.0,0.,24.0
1989-08-24T02:05:20.830 ,6,0,0.,24.0,0.,24.0,0.,24.0,0.,24.0
1989-08-24T02:05:44.830 ,7,1,0.,24.0,0.,24.0,0.,24.0,0.,24.0
1989-08-24T02:06:08.830 ,7,0,0.,24.0,0.,24.0,0.,24.0,0.,24.0
1989-08-24T02:06:32.830 ,7,1,0.,24.0,0.,24.0,0.,24.0,0.,24.0
1989-08-24T02:06:56.830 ,7,0,0.,24.0,0.,24.0,0.,24.0,0.,24.0
1989-08-24T02:07:20.830 ,6,1,0.,24.0,0.,24.0,0.,24.0,0.,24.0
1989-08-24T02:07:44.830 ,6,0,0.,24.0,0.,24.0,0.,24.0,0.,24.0
1989-08-24T02:08:08.830 ,5,1,0.,24.0,0.,24.0,0.,24.0,0.,24.0
1989-08-24T02:08:32.830 ,5,0,0.,24.0,0.,24.0,0.,24.0,0.,24.0
1989-08-24T02:08:56.830 ,4,1,0.,24.0,0.,24.0,0.,24.0,0.,24.0
1989-08-24T02:09:20.830 ,4,0,0.,24.0,0.,24.0,0.,24.0,0.,24.0
1989-08-24T02:09:44.830 ,3,1,0.,24.0,0.,24.0,0.,24.0,0.,24.0
1989-08-24T02:10:08.830 ,3,0,0.,24.0,0.,24.0,0.,24.0,0.,24.0
1989-08-24T02:10:32.830 ,2,1,0.,24.0,0.,24.0,0.,24.0,0.,24.0
1989-08-24T02:10:56.830 ,2,0,0.,24.0,0.,24.0,0.,24.0,0.,24.0
1989-08-24T02:11:20.830 ,1,1,0.,24.0,0.,24.0,0.,24.0,0.,24.0
1989-08-24T02:11:44.830 ,1,0,0.,24.0,0.,24.0,0.,24.0,0.,24.0
1989-08-24T02:12:08.830 ,0,1,0.,24.0,0.,24.0,0.,24.0,0.,24.0
1989-08-24T02:12:32.830 ,0,0,0.,24.0,0.,24.0,0.,24.0,0.,24.0
1989-08-24T02:12:56.830 ,0,1,0.,24.0,0.,24.0,0.,24.0,0.,24.0
1989-08-24T02:13:20.830 ,0,0,0.,24.0,0.,24.0,0.,24.0,0.,24.0
1989-08-24T02:13:44.830 ,1,1,0.,24.0,0.,24.0,0.,24.0,0.,24.0
1989-08-24T02:14:08.830 ,1,0,0.,24.0,0.,24.0,0.,24.0,0.,24.0
1989-08-24T02:14:32.830 ,2,1,0.,24.0,0.,24.0,0.,24.0,0.,24.0
1989-08-24T02:14:56.830 ,2,0,0.,24.0,0.,24.0,0.,24.0,0.,24.0
1989-08-24T02:15:20.830 ,3,1,0.,24.0,0.,24.0,0.,24.0,0.,24.0
1989-08-24T02:15:44.830 ,3,0,0.,24.0,0.,24.0,0.,24.0,0.,24.0
1989-08-24T02:16:08.830 ,4,1,0.,24.0,0.,24.0,0.,24.0,0.,24.0
1989-08-24T02:16:32.830 ,4,0,0.,24.0,0.,24.0,0.,24.0,0.,24.0
1989-08-24T02:16:56.830 ,5,1,0.,24.0,0.,24.0,0.,24.0,0.,24.0
1989-08-24T02:17:20.830 ,5,0,0.,24.0,0.,24.0,0.,24.0,0.,24.0
1989-08-24T02:17:44.830 ,6,1,0.,24.0,0.,24.0,0.,24.0,0.,24.0
1989-08-24T02:18:08.830 ,6,0,0.,24.0,0.,24.0,0.,24.0,0.,24.0
1989-08-24T02:18:32.830 ,7,1,0.,24.0,0.,24.0,0.,24.0,0.,24.0
1989-08-24T02:18:56.830 ,7,0,0.,24.0,0.,24.0,0.,24.0,0.,24.0
1989-08-24T02:19:20.830 ,7,1,0.,24.0,0.,24.0,0.,24.0,0.,24.0
1989-08-24T02:19:44.830 ,7,0,0.,24.0,0.,24.0,0.,24.0,0.,24.0
1989-08-24T02:20:08.830 ,6,1,0.,24.0,0.,24.0,0.,24.0,0.,24.0
1989-08-24T02:20:32.830 ,6,0,0.,24.0,0.,24.0,0.,24.0,0.,24.0
1989-08-24T02:20:56.830 ,5,0,,0,,0,,0,,0
1989-08-24T02:21:20.830 ,5,0,0.,24.0,0.,24.0,0.,24.0,0.,24.0
1989-08-24T02:21:44.830 ,4,1,0.,24.0,0.,24.0,0.,24.0,0.,24.0
1989-08-24T02:22:08.830 ,4,0,0.,24.0,0.,24.0,0.,24.0,0.,24.0
1989-08-24T02:22:32.830 ,3,1,0.,24.0,0.,24.0,0.,24.0,0.,24.0
1989-08-24T02:22:56.830 ,3,0,0.,24.0,0.,24.0,0.,24.0,0.,24.0
1989-08-24T02:23:20.830 ,2,1,0.,24.0,0.,24.0,0.,24.0,0.,24.0
1989-08-24T02:23:44.830 ,2,0,0.,24.0,0.,24.0,0.,24.0,0.,24.0
1989-08-24T02:24:08.830 ,1,1,0.,24.0,0.,24.0,0.,24.0,0.,24.0
1989-08-24T02:24:32.830 ,1,0,0.,24.0,0.,24.0,0.,24.0,0.,24.0
1989-08-24T02:24:56.830 ,0,1,0.,24.0,0.,24.0,0.,24.0,0.,24.0
1989-08-24T02:25:20.830 ,0,0,0.,24.0,0.,24.0,0.,24.0,0.,24.0
1989-08-24T02:25:44.830 ,0,1,0.,24.0,0.,24.0,0.,24.0,0.,24.0
1989-08-24T02:26:08.830 ,0,0,0.,24.0,0.,24.0,0.,24.0,0.,24.0
1989-08-24T02:26:32.830 ,1,1,0.,24.0,0.,24.0,0.,24.0,0.,24.0
1989-08-24T02:26:56.830 ,1,0,0.,24.0,0.,24.0,0.,24.0,0.,24.0
1989-08-24T02:27:20.830 ,2,1,0.,24.0,0.,24.0,0.,24.0,0.,24.0
1989-08-24T02:27:44.830 ,2,0,0.,24.0,0.,24.0,0.,24.0,0.,24.0
1989-08-24T02:28:08.830 ,3,1,0.,24.0,0.,24.0,0.,24.0,0.,24.0
1989-08-24T02:28:32.830 ,3,0,0.,24.0,0.,24.0,0.,24.0,0.,24.0
1989-08-24T02:28:56.830 ,4,1,0.,24.0,0.,24.0,0.,24.0,0.,24.0
1989-08-24T02:29:20.830 ,4,0,0.,24.0,0.,24.0,0.,24.0,0.,24.0
1989-08-24T02:29:44.830 ,5,1,0.,24.0,0.,24.0,0.,24.0,0.,24.0
1989-08-24T02:30:08.830 ,5,0,0.,24.0,0.,24.0,0.,24.0,0.,24.0
1989-08-24T02:30:32.830 ,6,1,0.,24.0,0.,24.0,0.,24.0,0.,24.0
1989-08-24T02:30:56.830 ,6,0,0.,24.0,0.,24.0,0.,24.0,0.,24.0
1989-08-24T02:31:20.830 ,7,1,0.,24.0,0.,24.0,0.,24.0,0.,24.0
1989-08-24T02:31:44.830 ,7,0,0.,24.0,0.,24.0,0.,24.0,0.,24.0
1989-08-24T02:32:08.830 ,7,1,0.,24.0,0.,24.0,0.,24.0,0.,24.0
1989-08-24T02:32:32.830 ,7,0,0.,24.0,0.,24.0,0.,24.0,0.,24.0
1989-08-24T02:32:56.830 ,6,1,0.,24.0,0.,24.0,0.,24.0,0.,24.0
1989-08-24T02:33:20.830 ,6,0,0.,24.0,0.,24.0,0.,24.0,0.,24.0
1989-08-24T02:33:44.830 ,5,1,0.,24.0,0.,24.0,0.,24.0,0.,24.0
1989-08-24T02:34:08.830 ,5,0,0.,24.0,0.,24.0,0.,24.0,0.,24.0
1989-08-24T02:34:32.830 ,4,1,0.,24.0,0.,24.0,0.,24.0,0.,24.0